This is the latest recevied weather packets stored in our database for station/object ES0THZ-13. If no packets are shown the sender has not sent any weather packets the latest 1 day(s).
| Time | Temp. | Humidity | Pressure | Rain* | Wind** | Luminosity | Snow |
|---|---|---|---|---|---|---|---|
| 1836274458 | 32.22° C | 45% | 1006.9 hPa | - | 0 m/s | - | - |
| 1836274144 | 32.22° C | 45% | 1006.9 hPa | - | 0 m/s | - | - |
| 1778027701 | 3.33° C | 81% | 1005.9 hPa | - | 0 m/s | - | - |
| 1778026561 | 3.33° C | 81% | 1004.6 hPa | - | 0 m/s | - | - |
| 1778025491 | 3.89° C | 81% | 1005.1 hPa | - | 0 m/s | - | - |
| 1778024456 | 3.33° C | 80% | 1005.2 hPa | - | 0 m/s | - | - |
| 1778023341 | 2.78° C | 80% | 1005.4 hPa | - | 0 m/s | - | - |
| 1778022181 | 2.22° C | 80% | 1003.9 hPa | - | 0 m/s | - | - |
| 1778021131 | 2.78° C | 79% | 1005.1 hPa | - | 0 m/s | - | - |
| 1778020041 | 3.89° C | 79% | 1006.2 hPa | - | 0 m/s | - | - |
| 1778018981 | 3.89° C | 78% | 1005.4 hPa | - | 0 m/s | - | - |
| 1778017976 | 3.89° C | 78% | 1004.7 hPa | - | 0 m/s | - | - |
| 1778016876 | 3.89° C | 77% | 1004.8 hPa | - | 0 m/s | - | - |
| 1778015761 | 3.89° C | 77% | 1005.8 hPa | - | 0 m/s | - | - |
| 1778014665 | 3.89° C | 76% | 1004.9 hPa | - | 0 m/s | - | - |
| 1778013581 | 4.44° C | 75% | 1004.6 hPa | - | 0 m/s | - | - |
| 1778012516 | 5° C | 74% | 1004.1 hPa | - | 0 m/s | - | - |
| 1778011521 | 5° C | 74% | 1005 hPa | - | 0 m/s | - | - |
| 1778010491 | 5.56° C | 73% | 1004.8 hPa | - | 0 m/s | - | - |
| 1778009376 | 6.11° C | 71% | 1004.4 hPa | - | 0 m/s | - | - |
| 1778008361 | 6.11° C | 70% | 1005.2 hPa | - | 0 m/s | - | - |
| 1778007296 | 6.67° C | 69% | 1004.4 hPa | - | 0 m/s | - | - |
| 1778006161 | 7.22° C | 68% | 1004.4 hPa | - | 0 m/s | - | - |
| 1778004991 | 7.78° C | 66% | 1004.2 hPa | - | 0 m/s | - | - |
| 1778003891 | 8.33° C | 64% | 1003.4 hPa | - | 0 m/s | - | - |
* Rain since midnight (hover to see other rain measurements)
** Current wind speed in m/s (hover to see current wind gust speed)